www.pogodaiklimat.ru

Погода и климат >> Архив погоды >> Китай >> Ляонин >> Далянь


ПОГОДА в Даляне

  • Прогноз погоды в Даляне
  • Монитор погоды в Даляне

АРХИВ ПОГОДЫ в Даляне

Время (UTC), дата Ветер
(напр.,м/с)
 
Видим.   Явления Облачность Т
(С)
Тd
(С)
f
(%)
Тe
(С)
Тes
(С)
Комфортность P
(гПа)
Po
(гПа)
Тmin
(С)
Tmax
(С)
R
(мм)
R24
(мм)
S
(см)
12 14.03 Ю 1 30 км ясно +6.9 -9.1 31 +7 +7 1020.8 1009.3
15 14.03 Ю 2 30 км н/о +5.8 -7.8 37 +4 +4 1020.7 1008.6
18 14.03 Ю 4 30 км н/о +5.9 -7.7 37 +3 +3 1018.2 1006.8 +11.4
21 14.03 С 3 30 км н/о +5.5 -3.6 52 +3 +3 1016.3 1004.3
00 15.03 С 7
{18}
30 км в посл. час ливневой дождь ясно +2.9 -6.2 51 -3 -2 1019.5 1008.0 0.0
03 15.03 С 6 30 км ясно +3.9 -9.5 37 -1 +4 1020.9 1008.8
06 15.03 С 7
{18}
30 км ясно +4.2 -7.3 43 -1 +2 1020.5 1009.0 +2.3
09 15.03 С 8 30 км ясно +4.6 -8.8 37 -1 -0 1021.0 1008.9
12 15.03 З 1 30 км ясно +2.6 -7.3 48 +2 +2 1022.1 1010.5
15 15.03 Ю 1 30 км н/о +1.9 -8.5 46 +1 +1 1021.5 1009.3
18 15.03 З 1 30 км н/о +3.0 -9.6 39 +2 +2 1021.3 1009.7 +5.9
21 15.03 ЮЗ 4 30 км н/о +3.2 -4.5 57 -1 -1 1019.3 1007.1
00 16.03 Ю 6 30 км ясно +5.1 -6.8 42 +1 +2 1018.6 1007.0
03 16.03 ЮЗ 3 30 км ясно +7.8 -10.0 27 +6 +16 опасность
простуды
1018.5 1006.6
06 16.03 СВ 2 30 км ясно +9.3 -7.4 30 +8 +18 опасность
простуды
1017.0 1005.6 +1.8
09 16.03 С 2 30 км ясно +9.5 -8.6 27 +9 +9 1018.0 1006.1
12 16.03 ЮЗ 1 23 км ясно +7.1 -4.3 44 +7 +7 1020.4 1008.9
15 16.03 штиль 0 22 км н/о +5.2 -3.3 54 +5 +5 1022.4 1010.3
18 16.03 СЗ 1 30 км н/о +3.9 -4.8 53 +3 +3 1023.6 1012.1 +10.3
21 16.03 С 1 30 км н/о +3.9 -6.1 48 +3 +3 1023.9 1011.7
00 17.03 СЗ 1 30 км ясно +7.0 -5.7 40 +7 +11 1025.6 1014.1
03 17.03 Ю 4 30 км ясно +10.8 -9.0 24 +9 +18 1025.4 1013.5
06 17.03 Ю 4 30 км ясно +10.9 -8.9 24 +9 +16 1022.9 1011.4 +3.5
09 17.03 Ю 4 30 км ясно +8.2 -6.3 35 +6 +6 1021.4 1009.4
12 17.03 Ю 4 30 км ясно +6.2 -1.7 57 +3 +3 1021.5 1010.0
15 17.03 Ю 5 30 км н/о +6.4 -0.8 60 +3 +3 1020.3 1008.3
18 17.03 ЮЗ 6 30 км н/о +7.0 -3.3 48 +3 +3 1018.1 1006.8 +11.8
21 17.03 Ю 7 30 км н/о +6.1 -1.1 60 +1 +1 1016.5 1004.5
00 18.03 Ю 5 30 км ясно +7.8 -1.7 51 +5 +7 1016.2 1004.8
03 18.03 Ю 5 30 км 9/9
[]
+10.6 -2.4 40 +8 +9 1014.9 1003.1
06 18.03 Ю 5 30 км 9/9
[]
+12.8 -2.3 35 +11 +12 1012.3 1001.1 +5.9
09 18.03 ЮЗ 3 30 км 9/9
[]
+11.5 +0.6 47 +10 +10 1010.8 999.1
12 18.03 Ю 4 25 км 9/9
[]
+10.0 +2.6 60 +8 +8 1011.2 999.9
15 18.03 ЮЗ 3 19 км н/о +9.0 +3.2 67 +7 +7 1010.5 998.7
18 18.03 ЮВ 1 14 км н/о +8.4 +3.5 71 +8 +8 1010.7 999.5 +12.9
21 18.03 штиль 0 11 км н/о +6.7 +3.1 78 +6 +6 1011.2 999.3
00 19.03 Ю 2 13 км 9/9
[]
+8.8 +4.0 72 +7 +8 1012.7 1001.4
03 19.03 ЮЗ 4 13 км 9/9
[]
+15.2 +4.3 48 +14 +15 1012.8 1001.2
06 19.03 Ю 2 14 км 9/9
[]
+16.7 +4.7 45 +17 +18 1010.7 999.6 +6.2
09 19.03 Ю 1 16 км 9/9
[]
+13.9 +3.7 50 +14 +15 1009.7 998.1
12 19.03 Ю 2 19 км 9/9
[]
+11.3 +2.8 56 +10 +10 1010.8 999.6
15 19.03 Ю 6 25 км н/о +12.0 +1.3 48 +10 +10 1011.3 999.6
18 19.03 Ю 5 15 км н/о +10.8 +1.3 52 +8 +8 1010.1 999.0 +17.3
21 19.03 Ю 5 26 км н/о +9.4 +0.8 55 +7 +7 1008.6 996.8
00 20.03 Ю 7 30 км 10/10
[]
+8.8 +2.6 65 +5 +5 1009.5 998.3
03 20.03 В 3 10 км слаб. дождь 10/10 200 м
[]
+7.7 +5.5 86 +5 +5 1008.6 996.8
06 20.03 В 3 н/о слаб. дождь 10/10 200 м
[]
+6.8 +5.4 91 +4 +4 1005.1 993.9 +6.6 2
09 20.03 В 5 4600 м слаб. дождь 10/10 200 м
[]
+6.1 +5.4 95 +2 +2 1003.8 992.0
12 20.03 В 4 3500 м слаб. дождь 10/10 200 м
[]
+6.4 +5.5 94 +2 +2 1004.8 993.6 7
15 20.03 СВ 3 3500 м дымка н/о +6.6 +5.9 95 +3 +3 1005.9 994.1
18 20.03 С 2 8000 м ?/? +6.6 +5.6 93 +4 +4 1008.2 996.9 +10.9 0.8
21 20.03 С 5 25 км н/о +1.9 +0.1 88 -4 -4 1010.3 998.2
00 21.03 С 6
{19}
26 км 6/6 300 м
[]
+1.4 -2.9 73 -5 -4 1013.3 1001.8 0.5
03 21.03 С 8
{19}
30 км 6/6 1000 м
[]
+2.2 -5.2 58 -4 -3 1018.3 1006.1
06 21.03 С 6
{21}
30 км 8/8 1000 м
[]
+3.8 -6.2 48 -1 -0 1018.9 1007.4 +0.8

 

Местоположение метеостанции Далянь (Ляонин, Китай): широта 38.90 долгота 121.63 высота над уровнем моря 97 м.

В архиве по умолчанию представлена погода в Даляне за последнюю неделю. Архивные данные за месяц целиком и за предыдущие месяцы, начиная с января 2011 года, Вы можете получить, выбрав интересующий диапазон дат из раскрывающегося списка и нажав кнопку "Ввод!".


*Определитесь, кто Вы:
робот инопланетянин человек

Внимание! Время в таблицах - всемирное. Для получения местного времени необходимо прибавить поправку, которая равна 8 ч.

Смотрите также архив погоды в соседних городах и на ближайших метеорологических станциях:

Погода в Чандао (Шаньдун, Китай) (134 км)
Погода в Лункоу (Шаньдун, Китай) (183 км)
Погода в Чэнгшантоу (Шаньдун, Китай) (190 км)
Погода в Инкоу (Ляонин, Китай) (203 км)
Погода в Хайяне (Шаньдун, Китай) (240 км)
Погода в Лаотине (Хэбэй, Китай) (243 км)
Погода в Цзиньчжоу (Ляонин, Китай) (252 км)
Погода в Даньдуне (Ляонин, Китай) (265 км)
Погода в Синыйджу (КНДР) (271 км)
Погода на Пэннёндо (Корея) (281 км)

Пояснения к столбцам:

Ветер - указаны скорость ветра в м/с - средняя за 10 мин, порывы в срок и между сроками (в фигурных скобках) и направление, откуда дует ветер: С - северный, СВ - северо-восточный, В - восточный, ЮВ - юго-восточный, Ю - южный, ЮЗ - юго-западный, З - западный, СЗ - северо-западный.
Видимость - горизонтальная дальность видимости в метрах или километрах. При видимости от 1 до 10 км при отсутствии осадков обычно наблюдается дымка, при ухудшении видимости до 1 км и менее - туман. В сухую погоду видимость может ухудшаться дымом, пылью или мглою.
Явления - указаны атмосферные явления, наблюдавшиеся в срок или в последний час перед сроком; фигурными скобками обозначены явления, наблюдавшиеся между сроками (за 1-3 часа до срока); квадратными скобками обозначены град или гололедные отложения с указанием их диаметра в мм.
Облачность - указаны через наклонную черту общая и нижняя облачность в баллах и высота нижней границы облаков в метрах; квадратными скобками обозначены формы облаков: Ci - перистые, Cs - перисто-слоистые, Cc - перисто-кучевые, Ac - высококучевые, As - высокослоистые, Sc - слоисто-кучевые, Ns - слоисто-дождевые, Cu - кучевые, Cb - кучево-дождевые. Подробнее классификацию облаков см. в Атласе облаков (PDF).
T - Температура воздуха - температура, измеренная на высоте 2 м над землей.
Td - Температура точки росы - температура, при понижении до которой содержащийся в воздухе водяной пар достигнет насыщения.
f - Относительная влажность воздуха - влажноcть воздуха, измеренная на высоте 2 м над землей.
Te - Эффективная температура - температура, которую ощущает одетый по сезону человек в тени. Характеристика душности погоды. При расчете учитывается влияние влажности воздуха и скорости ветра на теплоощущения человека.
Tes - Эффективная температура на солнце - температура, которую ощущает человек, с поправкой на солнечный нагрев. Характеристика знойности погоды. Зависит от высоты солнца над горизонтом, облачности и скорости ветра. Ночью, в пасмурную погоду, а также при ветре 12 м/с и более поправка равна нулю.
P - Атмосферное давление - приведенное к уровню моря атмосферное давление.
Po - Атмосферное давление - измеренное на уровне метеостанции атмосферное давление.
Tmin - Минимальная температура - минимум температуры воздуха на высоте 2 м над землей.
Tmax - Максимальная температура - максимум температуры воздуха на высоте 2 м над землей.
R - Количество осадков - Количество выпавших осадков за период времени, мм. При наведении курсора мыши на число - период времени, за который выпало указанное количество осадков.
R24 - Количество осадков - Количество выпавших осадков за 24 часа, мм.
S - Снежный покров - Высота снежного покрова, см. При наведении курсора мыши на число - состояние снежного покрова и степень покрытия местности в баллах.